| time (UTC) | temp F | wind direction | speed knots | gust knots | rain 1hr in | rain 24hr in | rain mn in | humidity % | barometer mb |
| 20260506231524 | 68 | 238 | 3.5 | 7.8 | 0.00 | 0.00 | 0.00 | 77 | 1008.1 |
| 20260506230023 | 69 | 228 | 2.6 | 8.7 | 0.00 | 0.00 | 0.00 | 76 | 1008.1 |
| 20260506224548 | 70 | 288 | 1.7 | 8.7 | 0.00 | 0.00 | 0.00 | 75 | 1008.1 |
| 20260506223022 | 70 | 190 | 2.6 | 10.4 | 0.00 | 0.00 | 0.00 | 74 | 1007.9 |
| 20260506221619 | 70 | 205 | 4.3 | 12.2 | 0.00 | 0.00 | 0.00 | 74 | 1008.2 |
| 20260506220045 | 69 | 212 | 5.2 | 10.4 | 0.00 | 0.00 | 0.00 | 75 | 1008.0 |
| 20260506214554 | 69 | 225 | 2.6 | 8.7 | 0.00 | 0.00 | 0.00 | 75 | 1007.9 |
| 20260506213021 | 69 | 268 | 4.3 | 8.7 | 0.00 | 0.00 | 0.00 | 75 | 1007.9 |
| 20260506211559 | 69 | 287 | 4.3 | 8.7 | 0.00 | 0.00 | 0.00 | 76 | 1007.7 |
| 20260506210057 | 68 | 204 | 2.6 | 9.6 | 0.00 | 0.00 | 0.00 | 77 | 1007.6 |
| 20260506204516 | 68 | 272 | 5.2 | 14.8 | 0.00 | 0.00 | 0.00 | 77 | 1007.5 |
| 20260506203050 | 68 | 181 | 5.2 | 10.4 | 0.00 | 0.00 | 0.00 | 76 | 1007.4 |
| 20260506201537 | 68 | 219 | 4.3 | 8.7 | 0.00 | 0.00 | 0.00 | 76 | 1007.4 |
| 20260506200040 | 67 | 268 | 5.2 | 11.3 | 0.00 | 0.00 | 0.00 | 77 | 1007.6 |
| 20260506194518 | 67 | 229 | 3.5 | 13.9 | 0.00 | 0.00 | 0.00 | 78 | 1007.8 |
| 20260506193050 | 66 | 294 | 7.0 | 13.0 | 0.00 | 0.00 | 0.00 | 78 | 1008.0 |
| 20260506191533 | 66 | 232 | 6.1 | 17.4 | 0.00 | 0.00 | 0.00 | 80 | 1008.2 |
| 20260506190015 | 66 | 260 | 6.1 | 16.5 | 0.00 | 0.00 | 0.00 | 81 | 1008.2 |
| 20260506184532 | 65 | 217 | 7.8 | 15.6 | 0.00 | 0.00 | 0.00 | 81 | 1008.3 |
| 20260506183114 | 65 | 167 | 7.8 | 16.5 | 0.00 | 0.00 | 0.00 | 81 | 1008.5 |
| 20260506183001 | 65 | 263 | 8.7 | 16.5 | 0.00 | 0.00 | 0.00 | 81 | 1008.6 |
| 20260506181540 | 65 | 243 | 4.3 | 13.0 | 0.00 | 0.00 | 0.00 | 81 | 1008.6 |
| 20260506180022 | 65 | 156 | 8.7 | 16.5 | 0.00 | 0.00 | 0.00 | 81 | 1008.7 |
| 20260506174540 | 65 | 210 | 6.1 | 16.5 | 0.00 | 0.00 | 0.00 | 80 | 1008.7 |
| 20260506173024 | 65 | 228 | 8.7 | 17.4 | 0.00 | 0.00 | 0.00 | 79 | 1008.8 |
| 20260506171554 | 66 | 250 | 5.2 | 17.4 | 0.00 | 0.00 | 0.00 | 79 | 1008.9 |
| 20260506170100 | 66 | 270 | 7.0 | 18.2 | 0.00 | 0.00 | 0.00 | 79 | 1009.2 |
| 20260506170010 | 66 | 225 | 7.0 | 18.2 | 0.00 | 0.00 | 0.00 | 79 | 1009.1 |
| 20260506164536 | 66 | 200 | 7.0 | 14.8 | 0.00 | 0.00 | 0.00 | 79 | 1009.2 |
| 20260506163012 | 66 | 225 | 2.6 | 10.4 | 0.00 | 0.00 | 0.00 | 82 | 1009.4 |
| 20260506161546 | 67 | 237 | 7.0 | 14.8 | 0.00 | 0.00 | 0.00 | 75 | 1009.9 |
| 20260506160020 | 68 | 215 | 7.8 | 14.8 | 0.00 | 0.00 | 0.00 | 71 | 1010.1 |
| 20260506154558 | 68 | 217 | 6.1 | 12.2 | 0.00 | 0.00 | 0.00 | 70 | 1010.2 |
| 20260506153020 | 68 | 175 | 6.1 | 12.2 | 0.00 | 0.00 | 0.00 | 68 | 1010.0 |
| 20260506151559 | 68 | 145 | 4.3 | 19.1 | 0.00 | 0.00 | 0.00 | 68 | 1010.1 |
| 20260506150018 | 68 | 194 | 6.1 | 13.9 | 0.00 | 0.00 | 0.00 | 68 | 1010.1 |
| 20260506144600 | 68 | 243 | 4.3 | 13.0 | 0.00 | 0.00 | 0.00 | 69 | 1010.2 |
| 20260506143032 | 67 | 229 | 6.1 | 14.8 | 0.00 | 0.00 | 0.00 | 69 | 1010.3 |
| 20260506141508 | 68 | 250 | 6.1 | 11.3 | 0.00 | 0.00 | 0.00 | 68 | 1010.4 |
| 20260506140042 | 68 | 174 | 8.7 | 16.5 | 0.00 | 0.00 | 0.00 | 67 | 1010.3 |
| 20260506134558 | 67 | 163 | 7.0 | 14.8 | 0.00 | 0.00 | 0.00 | 68 | 1010.1 |
| 20260506133036 | 67 | 212 | 6.1 | 15.6 | 0.00 | 0.00 | 0.00 | 68 | 1010.1 |
| 20260506131607 | 67 | 194 | 7.0 | 14.8 | 0.00 | 0.00 | 0.00 | 68 | 1010.1 |
| 20260506130026 | 67 | 195 | 7.0 | 15.6 | 0.00 | 0.00 | 0.00 | 68 | 1010.4 |
| 20260506124506 | 67 | 159 | 8.7 | 15.6 | 0.00 | 0.00 | 0.00 | 69 | 1010.5 |
| 20260506123040 | 67 | 190 | 4.3 | 13.9 | 0.00 | 0.00 | 0.00 | 70 | 1010.3 |
| 20260506121559 | 66 | 134 | 7.0 | 19.1 | 0.00 | 0.00 | 0.00 | 71 | 1010.4 |
| 20260506120034 | 65 | 177 | 5.2 | 15.6 | 0.00 | 0.00 | 0.00 | 74 | 1010.4 |
| 20260506114532 | 65 | 255 | 6.1 | 14.8 | 0.00 | 0.00 | 0.00 | 74 | 1010.3 |
| 20260506113042 | 64 | 190 | 5.2 | 15.6 | 0.00 | 0.00 | 0.00 | 75 | 1010.4 |
| 20260506111520 | 64 | 142 | 2.6 | 13.9 | 0.00 | 0.00 | 0.00 | 77 | 1010.4 |
| 20260506110039 | 63 | 205 | 5.2 | 14.8 | 0.00 | 0.00 | 0.00 | 78 | 1010.6 |
| 20260506104513 | 63 | 200 | 3.5 | 12.2 | 0.00 | 0.00 | 0.00 | 78 | 1010.4 |
| 20260506103008 | 62 | 137 | 3.5 | 10.4 | 0.00 | 0.00 | 0.00 | 80 | 1010.4 |
| 20260506101530 | 61 | 160 | 1.7 | 10.4 | 0.00 | 0.00 | 0.00 | 81 | 1010.5 |
| 20260506100013 | 62 | 156 | 2.6 | 8.7 | 0.00 | 0.00 | 0.00 | 81 | 1010.3 |
| 20260506094526 | 62 | 156 | 3.5 | 12.2 | 0.00 | 0.00 | 0.00 | 82 | 1010.1 |
| 20260506093022 | 62 | 226 | 3.5 | 10.4 | 0.00 | 0.00 | 0.00 | 82 | 1010.2 |
| 20260506091557 | 62 | 162 | 4.3 | 14.8 | 0.00 | 0.00 | 0.00 | 82 | 1010.1 |
| 20260506090012 | 62 | 169 | 5.2 | 15.6 | 0.00 | 0.00 | 0.00 | 82 | 1010.3 |
| 20260506084505 | 62 | 219 | 3.5 | 13.0 | 0.00 | 0.00 | 0.00 | 82 | 1010.3 |
| 20260506083028 | 62 | 178 | 4.3 | 10.4 | 0.00 | 0.00 | 0.00 | 82 | 1010.5 |
| 20260506081506 | 62 | 173 | 2.6 | 11.3 | 0.00 | 0.00 | 0.00 | 82 | 1010.6 |
| 20260506073007 | 63 | 173 | 4.3 | 10.4 | 0.00 | 0.00 | 0.00 | 82 | 1010.4 |
| 20260506071506 | 63 | 210 | 4.3 | 12.2 | 0.00 | 0.00 | 0.00 | 81 | 1010.5 |
| 20260506061513 | 64 | 155 | 4.3 | 13.9 | 0.00 | 0.00 | 0.00 | 80 | 1010.8 |
| 20260506044555 | 65 | 229 | 5.2 | 13.9 | 0.00 | 0.00 | 0.00 | 78 | 1011.3 |
| 20260506043019 | 65 | 134 | 5.2 | 13.0 | 0.00 | 0.00 | 0.00 | 78 | 1011.3 |
| 20260506041604 | 65 | 165 | 2.6 | 12.2 | 0.00 | 0.00 | 0.00 | 77 | 1011.4 |
| 20260506040018 | 65 | 198 | 1.7 | 9.6 | 0.00 | 0.00 | 0.00 | 76 | 1011.2 |
| 20260506034551 | 65 | 201 | 4.3 | 11.3 | 0.00 | 0.00 | 0.00 | 75 | 1011.3 |
| 20260506033036 | 65 | 149 | 5.2 | 20.0 | 0.00 | 0.00 | 0.00 | 74 | 1011.3 |
| 20260506031552 | 66 | 173 | 5.2 | 12.2 | 0.00 | 0.00 | 0.00 | 74 | 1011.3 |
| 20260506030038 | 66 | 195 | 2.6 | 8.7 | 0.00 | 0.00 | 0.00 | 73 | 1011.3 |
| 20260506024557 | 66 | 150 | 5.2 | 11.3 | 0.00 | 0.00 | 0.00 | 72 | 1011.5 |
| 20260506023035 | 67 | 211 | 6.1 | 15.6 | 0.00 | 0.00 | 0.00 | 70 | 1011.4 |
| 20260506021556 | 67 | 248 | 6.1 | 13.9 | 0.00 | 0.00 | 0.00 | 69 | 1011.3 |
| 20260506020029 | 67 | 155 | 5.2 | 17.4 | 0.00 | 0.00 | 0.00 | 67 | 1011.3 |
| 20260506014514 | 68 | 169 | 5.2 | 13.9 | 0.00 | 0.00 | 0.00 | 66 | 1011.1 |
| 20260506013044 | 68 | 179 | 7.0 | 13.9 | 0.00 | 0.00 | 0.00 | 65 | 1011.2 |
| 20260506011600 | 69 | 105 | 6.1 | 16.5 | 0.00 | 0.00 | 0.00 | 63 | 1010.8 |
| 20260506011508 | 69 | 197 | 6.1 | 16.5 | 0.00 | 0.00 | 0.00 | 63 | 1010.9 |
| 20260506010050 | 69 | 218 | 4.3 | 19.1 | 0.00 | 0.00 | 0.00 | 63 | 1010.7 |
| 20260506004543 | 69 | 178 | 5.2 | 14.8 | 0.00 | 0.00 | 0.00 | 64 | 1010.7 |
| 20260506003059 | 69 | 142 | 4.3 | 13.0 | 0.00 | 0.00 | 0.00 | 63 | 1010.4 |
| 20260506003000 | 69 | 43 | 4.3 | 13.0 | 0.00 | 0.00 | 0.00 | 63 | 1010.3 |
| 20260506001515 | 70 | 176 | 6.1 | 14.8 | 0.00 | 0.00 | 0.00 | 62 | 1010.3 |
| 20260506000046 | 71 | 243 | 6.1 | 13.0 | 0.00 | 0.00 | 0.00 | 61 | 1010.3 |
| 20260505234535 | 72 | 153 | 4.3 | 13.9 | 0.00 | 0.00 | 0.00 | 57 | 1010.2 |
| 20260505233048 | 73 | 156 | 3.5 | 17.4 | 0.00 | 0.00 | 0.00 | 53 | 1010.0 |